www.pogodaiklimat.ru

Архив погоды в Лондоне (Великобритания)

Время
(UTC), дата
01 24.01
02 24.01
03 24.01
04 24.01
05 24.01
06 24.01
07 24.01
08 24.01
09 24.01
10 24.01
11 24.01
12 24.01
13 24.01
14 24.01
15 24.01
16 24.01
17 24.01
18 24.01
19 24.01
20 24.01
21 24.01
22 24.01
23 24.01
00 25.01
01 25.01
02 25.01
03 25.01
04 25.01
05 25.01
06 25.01
07 25.01
08 25.01
09 25.01
10 25.01
11 25.01
12 25.01
13 25.01
14 25.01
15 25.01
16 25.01
17 25.01
18 25.01
19 25.01
20 25.01
21 25.01
22 25.01
23 25.01
00 26.01
01 26.01
02 26.01
03 26.01
04 26.01
05 26.01
06 26.01
07 26.01
08 26.01
09 26.01
10 26.01
11 26.01
12 26.01
13 26.01
14 26.01
15 26.01
16 26.01
17 26.01
18 26.01
19 26.01
20 26.01
21 26.01
22 26.01
23 26.01
00 27.01
01 27.01
02 27.01
03 27.01
04 27.01
05 27.01
06 27.01
07 27.01
08 27.01
09 27.01
10 27.01
11 27.01
12 27.01
13 27.01
14 27.01
15 27.01
16 27.01
17 27.01
18 27.01
19 27.01
20 27.01
21 27.01
22 27.01
23 27.01
00 28.01
01 28.01
02 28.01
03 28.01
04 28.01
05 28.01
06 28.01
07 28.01
08 28.01
09 28.01
10 28.01
11 28.01
12 28.01
13 28.01
14 28.01
15 28.01
16 28.01
17 28.01
18 28.01
19 28.01
20 28.01
21 28.01
22 28.01
23 28.01
00 29.01
01 29.01
02 29.01
03 29.01
04 29.01
05 29.01
06 29.01
07 29.01
08 29.01
09 29.01
10 29.01
11 29.01
12 29.01
13 29.01
14 29.01
15 29.01
16 29.01
17 29.01
18 29.01
19 29.01
20 29.01
21 29.01
22 29.01
23 29.01
00 30.01
01 30.01
02 30.01
03 30.01
04 30.01
05 30.01
06 30.01
07 30.01
08 30.01
09 30.01
10 30.01
11 30.01
12 30.01
13 30.01
14 30.01
15 30.01
16 30.01
17 30.01
18 30.01
19 30.01
20 30.01
21 30.01
22 30.01
23 30.01
00 31.01
01 31.01
02 31.01
Ветер
(напр.,м/с)
Видим. Явления Облачность Т
(С)
Тd
(С)
f
(%)
Тe
(С)
Тes
(С)
Комфортность P
(гПа)
Po
(гПа)
Тmin
(С)
Tmax
(С)
R
(мм)
R24
(мм)
S
(см)
С 2-2
{3}
19 км 10/10 500 м +3.2 +0.5 82 +1 +1 тепло 1038.9 1035.7
СВ 2-3
{4}
17 км 10/10 480 м +3.6 +0.9 82 +1 +1 тепло 1038.7 1035.5
С 2-2
{3}
17 км 10/10 480 м +3.7 +1.0 83 +1 +1 по сезону 1039.0 1035.8
2-3
{3}
17 км 10/10 500 м +3.6 +1.0 83 +1 +1 по сезону 1038.9 1035.7
2-3
{3}
17 км 10/10 500 м +3.4 +0.8 83 +1 +1 тепло 1038.8 1035.6
С 2-4
{4}
18 км 10/10 480 м +3.7 +0.9 82 +1 +1 по сезону 1038.9 1035.7 +2.9 +4.1 0.2
СВ 2-3
{4}
17 км 10/10 480 м +3.5 +0.7 82 +1 +1 по сезону 1038.8 1035.6
СВ 2-4
{4}
19 км 10/10 480 м +3.6 +0.7 81 +1 +1 тепло 1039.5 1036.3
СВ 4-5
{5}
22 км 10/10 480 м +3.7 +0.4 79 -0 -0 по сезону 1040.1 1036.9 +3.8
С 2-3
{6}
15 км 10/10 500 м +3.5 +0.5 81 +1 +1 по сезону 1040.1 1036.9
СВ 3-5
{6}
20 км 10/10 450 м +4.1 +0.6 78 +1 +1 тепло 1040.1 1036.9
В 4-5
{6}
23 км 10/10 450 м +4.1 +0.3 76 0 0 прохладно 1039.7 1036.5
СВ 3-5
{5}
24 км 8/8 480 м +4.2 -0.2 73 +1 +1 по сезону 1039.1 1035.9
СВ 3-5
{5}
19 км 4/4 540 м +4.9 -0.2 70 +2 +2 тепло 1038.8 1035.6
СВ 2-4
{4}
20 км 1/1 600 м +4.8 -0.5 69 +2 +3 по сезону 1038.5 1035.4
СВ 1-2
{3}
21 км ясно +3.9 -0.7 72 +3 +3 по сезону 1038.5 1035.3
С 2-3
{4}
18 км ясно +2.9 -0.6 78 +1 +1 тепло 1038.9 1035.7
С 2-3
{3}
15 км ясно +2.0 -0.6 83 -1 -1 прохладно 1038.8 1035.6 +5.0
С 2-3
{3}
13 км ясно +1.6 -0.6 85 -1 -1 по сезону 1039.1 1035.8
С 2-3
{3}
10 км ясно +0.9 -1.0 87 -2 -2 по сезону 1038.9 1035.7
С 1-2
{3}
8000 м дымка ясно 0.0 -1.4 90 -2 -2 прохладно 1038.9 1035.7 +5.0
СЗ 1-2
{2}
5000 м дымка 1/1 -1.1 -2.2 92 -3 -3 по сезону 1038.8 1035.5
СЗ 2-2
{2}
4600 м дымка ясно -1.5 -2.3 94 -5 -5 по сезону 1038.5 1035.2
З 1-2
{2}
4900 м дымка ясно -2.2 -2.9 95 -5 -5 холодно 1038.0 1034.7
СЗ 1-2
{2}
3600 м дымка ясно -2.5 -3.1 96 -5 -5 по сезону 1037.7 1034.5
З 1-2
{2}
4500 м дымка 6/6 540 м -2.9 -3.5 96 -5 -5 по сезону 1037.3 1034.0
З 1-2
{2}
3700 м дымка 10/10 400 м -2.8 -3.4 96 -5 -5 холодно 1037.5 1034.2
З 1-2
{3}
3100 м дымка 10/10 300 м -1.5 -2.0 96 -2 -2 по сезону 1037.2 1033.9
З 2-2
{2}
3700 м дымка 10/10 240 м -1.0 -1.5 96 -4 -4 по сезону 1036.9 1033.7
З 2-3
{3}
4300 м дымка 10/10 150 м -0.8 -1.5 95 -4 -4 прохладно 1036.9 1033.6 -3.3 +2.0
З 2-3
{4}
2500 м дымка 10/10 60 м -0.9 -1.4 96 -5 -5 по сезону 1036.5 1033.2
З 3-4
{4}
500 м туман 10/10 30 м -0.7 -1.1 97 -5 -5 по сезону 1036.2 1032.9
Ю 3-4
{5}
900 м туман 10/10 30 м -0.6 -0.9 98 -5 -5 холодно 1035.6 1032.3 +0.1
ЮЗ 3-4
{5}
800 м осадки 10/10 30 м -0.1 -0.4 98 -5 -5 прохладно 1034.8 1031.6
ЮЗ 3-5
{5}
1300 м 10/10 60 м +0.2 0.0 99 -5 -5 по сезону 1034.0 1030.7
ЮЗ 3-5
{5}
1900 м дымка 10/10 90 м +1.1 +0.9 99 -3 -3 холодно 1033.1 1029.9
З 3-5
{5}
1700 м 10/10 90 м +1.7 +1.4 98 -3 -3 прохладно 1032.8 1029.6
З 3-4
{5}
2600 м 10/10 90 м +2.2 +1.9 98 -2 -2 по сезону 1032.1 1028.9
Ю 3-5
{5}
2700 м дымка 10/10 90 м +2.8 +2.4 97 -1 -1 прохладно 1030.5 1027.3
З 3-4
{5}
5000 м дымка 10/10 90 м +3.4 +3.0 97 -1 -1 по сезону 1030.5 1027.3
З 2-3
{4}
3900 м 10/10 120 м +3.3 +2.9 97 0 0 по сезону 1029.5 1026.3 0.6
З 3-4
{4}
4400 м 10/10 150 м +3.4 +2.9 97 -1 -1 прохладно 1029.0 1025.8 +3.4
З 3-5
{5}
1600 м дождь 10/10 90 м +3.4 +3.0 97 -1 -1 по сезону 1028.6 1025.4 0.8
З 2-4
{5}
1900 м слаб. морось с дождем 10/10 60 м +3.6 +3.2 97 0 0 тепло 1028.4 1025.2 1
З 2-2
{4}
1500 м слаб. дождь 10/10 450 м +3.3 +2.9 97 +1 +1 по сезону 1028.3 1025.2 +3.8 3
СЗ 2-4
{4}
7000 м 10/10 800 м +4.7 +4.4 98 +2 +2 по сезону 1028.3 1025.2
С 4-7
{8}
24 км 10/10 1500 м +6.0 +4.4 89 +2 +2 тепло 1028.4 1025.3
С 4-6
{8}
35 км 9/9 1380 м +5.5 +3.2 85 +2 +2 по сезону 1028.9 1025.7
С 4-7
{7}
35 км ясно +4.6 +2.5 86 +1 +1 по сезону 1028.8 1025.6
С 3-4
{7}
35 км ясно +3.8 +2.0 88 0 0 тепло 1028.9 1025.7
С 4-7
{7}
40 км 4/4 600 м +3.7 +1.5 86 -1 -1 по сезону 1029.0 1025.8
3-5
{8}
35 км ясно +3.3 +1.1 85 -1 -1 по сезону 1029.2 1026.0
4-6
{9}
30 км 6/6 1000 м +4.0 +1.9 86 -0 -0 тепло 1029.4 1026.3
С 4-8
{8}
29 км 10/10 900 м +4.4 +2.2 86 0 0 по сезону 1029.4 1026.2 +3.1 +6.1 2.8
С 4-8
{8}
35 км 10/10 960 м +4.6 +1.9 83 0 0 по сезону 1029.9 1026.7
С 4-6
{9}
30 км 10/10 900 м +4.7 +2.3 84 +1 +1 тепло 1030.4 1027.3
С 3-6
{8}
30 км 6/6 360 м +4.6 +2.3 85 +1 +1 по сезону 1030.6 1027.4 +6.1
С 4-7
{7}
30 км 10/10 300 м +5.3 +3.2 86 +1 +1 по сезону 1030.9 1027.8
С 5-7
{7}
30 км 10/10 300 м +5.9 +4.0 88 +2 +2 тепло 1031.2 1028.0
С 5-8
{9}
26 км 10/10 330 м +7.0 +4.2 82 +3 +3 по сезону 1030.9 1027.7
С 4-7
{10}
5000 м слаб. морось 10/10 420 м +7.2 +4.3 82 +4 +4 тепло 1030.8 1027.6
С 5-8
{8}
24 км 10/10 480 м +7.7 +4.1 78 +4 +4 тепло 1030.5 1027.4
С 5-8
{10}
27 км 10/10 540 м +7.7 +4.3 79 +4 +4 по сезону 1030.5 1027.4
С 5-9
{10}
30 км 8/8 500 м +7.2 +3.7 78 +3 +3 по сезону 1030.9 1027.7
С 4-7
{11}
26 км 6/6 1170 м +6.6 +4.0 83 +3 +3 тепло 1031.0 1027.9
С 4-7
{8}
28 км 1/1 1320 м +5.9 +3.2 83 +2 +2 по сезону 1031.3 1028.2 +7.9
С 4-7
{7}
40 км 1/1 1020 м +5.5 +1.8 77 +2 +2 по сезону 1031.7 1028.5
С 2-3
{6}
55 км 10/10 960 м +5.2 +1.4 76 +3 +3 тепло 1031.7 1028.6
С 3-5
{8}
50 км 10/10 450 м +5.1 +1.9 80 +2 +2 по сезону 1031.6 1028.4 +7.9
С 3-5
{6}
40 км 10/10 420 м +5.0 +2.7 85 +2 +2 по сезону 1031.9 1028.8
С 4-7
{7}
12 км 10/10 360 м +5.0 +2.8 86 +1 +1 тепло 1031.8 1028.6
С 3-6
{7}
50 км 10/10 480 м +4.8 +2.2 83 +1 +1 по сезону 1031.1 1028.0
С 2-4
{6}
55 км 10/10 480 м +4.6 +1.9 83 +2 +2 тепло 1031.0 1027.8
С 4-6
{6}
60 км 10/10 480 м +4.5 +1.6 81 +1 +1 тепло 1030.5 1027.3
С 3-5
{7}
60 км 10/10 420 м +4.5 +1.8 83 +1 +1 по сезону 1030.2 1027.0
С 3-5
{7}
22 км 10/10 300 м +4.2 +2.1 86 0 0 по сезону 1030.3 1027.2
С 3-5
{6}
20 км 10/10 210 м +3.9 +2.6 91 0 0 тепло 1030.1 1026.9
С 3-5
{6}
19 км дымка 10/10 180 м +4.0 +2.9 93 0 0 по сезону 1030.2 1027.0 +3.9 +5.9
С 3-5
{6}
25 км 10/10 400 м +4.2 +2.6 89 0 0 по сезону 1030.2 1027.0
С 3-7
{7}
30 км 10/10 800 м +4.4 +2.0 84 +1 +1 тепло 1030.4 1027.3
С 3-4
{6}
29 км 10/10 750 м +4.7 +2.1 83 +2 +2 по сезону 1030.8 1027.6 +5.2
С 3-4
{5}
30 км 9/9 800 м +5.4 +2.2 80 +2 +3 тепло 1031.1 1027.9
С 4-6
{6}
35 км 10/10 930 м +6.0 +2.0 75 +3 +3 тепло 1031.1 1027.9
С 4-7
{7}
35 км 10/10 1000 м +6.9 +1.7 69 +4 +4 по сезону 1030.5 1027.4
СВ 4-7
{8}
35 км 10/10 840 м +7.1 +0.4 62 +4 +4 тепло 1030.3 1027.2
С 3-5
{7}
40 км 10/10 840 м +7.2 +1.0 65 +5 +5 тепло 1030.1 1027.0
С 3-6
{6}
35 км 10/10 960 м +6.9 +0.7 65 +4 +4 по сезону 1030.4 1027.2
С 4-7
{7}
45 км 10/10 1050 м +6.6 +0.6 65 +3 +3 тепло 1030.5 1027.4
С 2-4
{5}
35 км ясно +5.8 +0.7 70 +4 +4 тепло 1030.8 1027.6
С 2-4
{4}
35 км 10/10 1110 м +5.6 +1.0 72 +3 +3 по сезону 1031.5 1028.3 +7.3
2-4
{4}
30 км 5/5 1140 м +4.6 +1.1 78 +2 +2 по сезону 1031.7 1028.5
2-3
{4}
27 км ясно +3.6 +1.1 84 +1 +1 тепло 1031.8 1028.6
С 2-4
{4}
24 км ясно +2.8 +0.7 86 -0 -0 по сезону 1032.1 1028.9 +7.3
С 2-3
{4}
23 км ясно +2.0 +0.4 89 -1 -1 по сезону 1032.1 1028.9
С 1-2
{3}
24 км 10/10 1020 м +2.1 +0.6 90 +2 +2 тепло 1031.8 1028.6
С 2-3
{3}
23 км 10/10 1020 м +2.2 +0.9 91 -1 -1 по сезону 1032.0 1028.8
СЗ 2-3
{3}
20 км 10/10 1000 м +2.1 +0.7 90 -1 -1 по сезону 1031.9 1028.7
С 2-3
{3}
22 км 10/10 930 м +2.4 +0.8 89 -0 -0 тепло 1031.8 1028.6
С 2-2
{4}
30 км 10/10 930 м +2.9 +0.2 82 +1 +1 по сезону 1031.9 1028.7
СЗ 2-4
{4}
35 км 10/10 960 м +3.1 -0.2 79 0 0 по сезону 1032.3 1029.1
СВ 2-4
{4}
45 км 10/10 960 м +3.5 -1.8 68 +1 +1 тепло 1032.2 1029.0
С 1-2
{3}
35 км 10/10 1000 м +3.2 -1.5 71 +2 +2 по сезону 1032.2 1029.0 +1.7 +5.6
штиль 0-2
{2}
30 км 10/10 1000 м +2.7 -1.3 75 +2 +2 тепло 1032.4 1029.2
СЗ 1-2
{2}
29 км 10/10 1020 м +3.1 -1.2 73 +2 +2 тепло 1032.6 1029.4
З 2-3
{3}
30 км 10/10 1000 м +3.5 -1.0 72 +1 +1 по сезону 1032.7 1029.5 +3.6
З 2-3
{4}
26 км 10/10 1080 м +4.0 -0.4 73 +2 +2 тепло 1033.1 1029.9
З 2-3
{4}
22 км 10/10 1050 м +4.6 -0.7 68 +3 +3 тепло 1032.6 1029.5
З 2-3
{4}
25 км 10/10 1020 м +5.5 -0.6 65 +3 +3 по сезону 1032.2 1029.0
З 3-5
{5}
26 км 10/10 960 м +5.6 +0.3 69 +2 +2 по сезону 1032.1 1028.9
З 3-4
{5}
26 км 10/10 930 м +6.0 +0.5 68 +3 +3 тепло 1031.6 1028.4
З 3-5
{5}
30 км 10/10 840 м +6.1 +0.3 66 +3 +3 по сезону 1031.4 1028.3
З 2-4
{5}
30 км 10/10 750 м +6.1 +0.7 68 +4 +4 тепло 1031.5 1028.4
СЗ 3-4
{4}
30 км 10/10 750 м +5.9 +1.1 71 +3 +3 тепло 1031.6 1028.4
СЗ 2-3
{4}
30 км 10/10 600 м +5.6 +1.4 74 +3 +3 по сезону 1032.0 1028.8 +6.2
З 2-2
{4}
27 км 10/10 570 м +5.4 +1.6 76 +4 +4 тепло 1031.9 1028.8
З 2-3
{3}
22 км 10/10 630 м +4.8 +1.9 81 +2 +2 тепло 1031.7 1028.6
З 2-3
{3}
20 км 10/10 600 м +4.8 +2.0 82 +3 +3 по сезону 1032.0 1028.9 +6.2
З 2-3
{3}
16 км 10/10 570 м +4.5 +2.4 86 +2 +2 тепло 1031.9 1028.7
З 2-2
{4}
13 км 10/10 420 м +4.5 +2.6 87 +2 +2 тепло 1031.8 1028.6
ЮЗ 2-3
{3}
12 км 10/10 360 м +4.6 +2.9 89 +2 +2 по сезону 1031.1 1028.0
ЮЗ 2-3
{3}
11 км 10/10 500 м +4.5 +2.8 89 +2 +2 тепло 1031.0 1027.9
ЮЗ 2-2
{3}
13 км 10/10 480 м +4.5 +2.6 87 +2 +2 тепло 1030.7 1027.5
З 2-3
{3}
9000 м 10/10 400 м +4.5 +2.7 88 +2 +2 по сезону 1030.8 1027.6
ЮЗ 2-3
{3}
10 км дымка 10/10 450 м +4.4 +3.0 91 +2 +2 тепло 1030.1 1026.9
ЮЗ 2-3
{3}
13 км 10/10 540 м +4.6 +2.9 89 +2 +2 тепло 1029.8 1026.6
ЮЗ 4-5
{5}
19 км 10/10 570 м +4.6 +2.7 87 +1 +1 по сезону 1029.1 1025.9 +4.1 +5.6
ЮЗ 4-6
{6}
22 км 10/10 480 м +4.9 +2.4 84 +1 +1 тепло 1029.0 1025.8
ЮЗ 4-6
{7}
22 км 10/10 300 м +4.7 +2.5 86 0 0 тепло 1028.6 1025.4
ЮЗ 4-6
{7}
16 км 10/10 270 м +4.9 +2.9 87 +1 +1 по сезону 1028.5 1025.4 +5.0
ЮЗ 4-6
{8}
18 км 10/10 300 м +5.9 +3.8 86 +2 +2 тепло 1028.4 1025.2
ЮЗ 4-6
{7}
21 км 10/10 270 м +6.6 +5.0 90 +3 +3 тепло 1027.9 1024.8
ЮЗ 5-9
{9}
35 км 10/10 270 м +7.2 +5.2 87 +3 +3 по сезону 1027.0 1023.9
ЮЗ 5-7
{8}
40 км 10/10 300 м +7.9 +5.7 86 +4 +4 тепло 1025.7 1022.6
ЮЗ 7-10
{10}
>70 км 10/10 330 м +8.5 +5.8 83 +4 +4 тепло 1024.5 1021.4
З 6-8
{10}
30 км 10/10 300 м +8.5 +6.5 87 +4 +4 по сезону 1024.1 1021.0
З 6-8
{9}
3900 м слаб. морось с дождем 10/10 240 м +8.4 +7.1 92 +4 +4 тепло 1023.7 1020.7
ЮЗ 5-7
{9}
>70 км 4/4 330 м +8.1 +6.6 90 +4 +4 тепло 1023.0 1019.9
ЮЗ 7-9
{9}
>70 км ясно +8.1 +5.7 85 +4 +4 по сезону 1022.5 1019.4 +8.9
ЮЗ 5-7
{9}
>70 км ясно +7.2 +5.0 86 +3 +3 тепло 1023.2 1020.0
З 6-7
{9}
55 км 1/1 1320 м +6.4 +4.4 87 +2 +2 тепло 1023.2 1020.1
З 5-7
{8}
50 км ясно +6.0 +4.0 87 +2 +2 по сезону 1023.0 1019.9 +8.9
З 6-9
{9}
30 км 5/5 330 м +5.5 +4.0 90 +1 +1 тепло 1023.0 1019.9
ЮЗ 6-8
{8}
40 км ясно +6.2 +4.7 90 +2 +2 тепло 1022.4 1019.3
З 6-8
{9}
35 км ясно +6.1 +4.6 90 +1 +1 по сезону 1021.8 1018.7
З 6-7
{9}
35 км 4/4 800 м +6.5 +5.1 91 +2 +2 тепло 1021.9 1018.8
ЮЗ 6-8
{8}
35 км 10/10 1440 м +7.0 +5.6 91 +3 +3 тепло 1021.2 1018.1
З 4-6
{9}
40 км 10/10 900 м +7.5 +6.1 91 +4 +4 по сезону 1021.2 1018.1
З 5-7
{8}
5000 м морось 10/10 720 м +8.0 +6.7 91 +4 +4 тепло 1021.6 1018.5
З 5-6
{6}
30 км 8/8 700 м +7.7 +6.4 91 +4 +4 тепло 1022.0 1018.9
З 0-7
{7}
35 км 10/10 700 м +8.2 +6.2 87 +5 +5 тепло 1022.6 1019.5 +5.3 +8.2
З 6-9
{10}
45 км 1/1 +7.2 +1.7 68 +3 +3 тепло 1023.2 1020.1
СЗ 4-6
{8}
35 км 5/5 +6.2 +1.0 69 +3 +3 тепло 1024.6 1021.4
З 4-6
{6}
35 км 10/10 1110 м +6.3 +1.4 71 +3 +3 по сезону 1024.9 1021.8 +8.3
З 5-8
{9}
30 км 5/5 +7.3 +1.7 68 +4 +4 тепло 1025.2 1022.1
З 5-8
{8}
35 км ясно +8.2 +1.3 62 +5 +7 тепло 1025.7 1022.6
З 5-8
{9}
30 км 1/1 +8.6 +1.4 61 +5 +7 по сезону 1025.9 1022.8
З 5-8
{9}
35 км 9/9 +8.4 +1.6 62 +5 +5 тепло 1025.8 1022.7
З 5-8
{9}
30 км 9/9 +9.8 +1.8 57 +7 +7 тепло 1025.6 1022.5
СЗ 5-7
{7}
30 км 3/3 1000 м +9.6 +1.7 58 +7 +7 тепло 1025.9 1022.8
СЗ 4-6
{9}
30 км ясно +8.8 +1.5 60 +6 +6 тепло 1026.7 1023.6
СЗ 4-5
{7}
30 км ясно +7.6 +1.3 64 +5 +5 тепло 1027.2 1024.1
З 2-3
{5}
28 км ясно +6.3 +0.4 66 +4 +4 по сезону 1027.7 1024.5 +9.9
ЮЗ 3-3
{4}
30 км ясно +5.3 +0.7 72 +2 +2 по сезону 1028.0 1024.9
ЮЗ 3-4
{6}
26 км ясно +5.5 +1.4 75 +3 +3 тепло 1028.3 1025.2
ЮЗ 3-6
{6}
25 км ясно +4.4 +1.3 80 +1 +1 по сезону 1028.1 1024.9 +9.9
З 3-5
{5}
23 км ясно +4.1 +1.2 81 +1 +1 по сезону 1028.0 1024.9
З 3-5
{5}
28 км 10/10 +4.2 +0.9 79 +1 +1 тепло 1028.2 1025.0
ЮЗ 3-4
{5}
29 км 10/10 +4.3 +1.5 82 +1 +1 по сезону 1027.3 1024.2
ЮЗ 2-3
{5}
30 км 10/10 +4.4 +1.6 82 +2 +2 тепло 1026.9 1023.7
ЮЗ 4-5
{7}
30 км 10/10 2000 м +5.1 +2.2 82 +1 +1 тепло 1026.4 1023.3
Местоположение метеостанции Лондон (Великобритания): широта 51.48 долгота -0.45 высота над уровнем моря 25 м.
В архиве по умолчанию представлена погода в Лондоне за последнюю неделю. Архивные данные за месяц целиком и за предыдущие месяцы, начиная с января 2011 года, Вы можете получить, выбрав интересующий диапазон дат из раскрывающегося списка и нажав кнопку "Найти!".
*Определитесь, кто Вы:
Внимание! Время в таблицах - всемирное. Для получения местного времени необходимо прибавить поправку, которая равна 0 ч.
Смотрите также архив погоды в соседних городах и на ближайших метеорологических станциях:
Партнеры нашего сайта:
Парфюмерия бай
парфюмерия бай
perfumer.by

     
Пояснения к столбцам:
  • Ветер - указаны скорость ветра в м/с - средняя за 10 мин, порывы в срок и между сроками (в фигурных скобках) и направление, откуда дует ветер: С - северный,
  • СВ - северо-восточный, В - восточный, ЮВ - юго-восточный, Ю - южный, ЮЗ - юго-западный, З - западный, СЗ - северо-западный.
  • Видимость - горизонтальная дальность видимости в метрах или километрах. При видимости от 1 до 10 км при отсутствии осадков обычно наблюдается дымка, при ухудшении видимости до 1 км и менее - туман. В сухую погоду видимость может ухудшаться дымом, пылью или мглою.
  • Явления - указаны атмосферные явления, наблюдавшиеся в срок или в последний час перед сроком; фигурными скобками обозначены явления, наблюдавшиеся между сроками (за 1-3 часа до срока); квадратными скобками обозначены град или гололедные отложения с указанием их диаметра в мм.
  • Облачность - указаны через наклонную черту общая и нижняя облачность в баллах и высота нижней границы облаков в метрах; квадратными скобками обозначены формы облаков: Ci - перистые, Cs - перисто-слоистые, Cc - перисто-кучевые, Ac - высококучевые, As - высокослоистые, Sc - слоисто-кучевые, Ns - слоисто-дождевые, Cu - кучевые, Cb - кучево-дождевые. Подробнее классификацию облаков см. в Атласе облаков (PDF).
  • T - Температура воздуха - температура, измеренная на высоте 2 м над землей.
  • Td - Температура точки росы - температура, при понижении до которой содержащийся в воздухе водяной пар достигнет насыщения.
  • f - Относительная влажность воздуха - влажноcть воздуха, измеренная на высоте 2 м над землей.
  • Te - Эффективная температура - температура, которую ощущает одетый по сезону человек в тени. Характеристика душности погоды. При расчете учитывается влияние влажности воздуха и скорости ветра на теплоощущения человека.
  • Tes - Эффективная температура на солнце - температура, которую ощущает человек, с поправкой на солнечный нагрев. Характеристика знойности погоды. Зависит от высоты солнца над горизонтом, облачности и скорости ветра. Ночью, в пасмурную погоду, а также при ветре 12 м/с и более поправка равна нулю.
  • P - Атмосферное давление - приведенное к уровню моря атмосферное давление.
  • Po - Атмосферное давление - измеренное на уровне метеостанции атмосферное давление.
  • Tmin - Минимальная температура - минимум температуры воздуха на высоте 2 м над землей.
  • Tmax - Максимальная температура - максимум температуры воздуха на высоте 2 м над землей.
  • R - Количество осадков - Количество выпавших осадков за период времени, мм. При наведении курсора мыши на число - период времени, за который выпало указанное количество осадков.
  • R24 - Количество осадков - Количество выпавших осадков за 24 часа, мм.
  • S - Снежный покров - Высота снежного покрова, см. При наведении курсора мыши на число - состояние снежного покрова и степень покрытия местности в баллах.